This is the latest recevied weather packets stored in our database for station/object HB9ZRH-10. If no packets are shown the sender has not sent any weather packets the latest 10 day(s).
| Time | Temp. | Humidity | Pressure | Rain* | Wind** | Luminosity | Snow |
|---|---|---|---|---|---|---|---|
| 1778087936 | 18.33° C | 47% | 1008.8 hPa | - | - | - | - |
| 1778087636 | 20.56° C | 46% | 1008.7 hPa | - | - | - | - |
| 1778087336 | 21.11° C | 46% | 1008.5 hPa | - | - | - | - |
| 1778087036 | 20.56° C | 46% | 1008.7 hPa | - | - | - | - |
| 1778086736 | 20° C | 47% | 1008.6 hPa | - | - | - | - |
| 1778086436 | 20° C | 47% | 1008.5 hPa | - | - | - | - |
| 1778086136 | 21.11° C | 46% | 1008.6 hPa | - | - | - | - |
| 1778085836 | 22.22° C | 45% | 1008.5 hPa | - | - | - | - |
| 1778085536 | 22.78° C | 45% | 1008.5 hPa | - | - | - | - |
| 1778085236 | 21.67° C | 46% | 1008.6 hPa | - | - | - | - |
| 1778084936 | 22.22° C | 46% | 1008.7 hPa | - | - | - | - |
| 1778084636 | 21.67° C | 46% | 1008.6 hPa | - | - | - | - |
| 1778084336 | 21.11° C | 48% | 1008.6 hPa | - | - | - | - |
| 1778084036 | 19.44° C | 49% | 1008.7 hPa | - | - | - | - |
| 1778083736 | 19.44° C | 48% | 1008.5 hPa | - | - | - | - |
| 1778083436 | 17.22° C | 51% | 1008.6 hPa | - | - | - | - |
| 1778083136 | 16.67° C | 50% | 1008.6 hPa | - | - | - | - |
| 1778082836 | 16.67° C | 50% | 1008.6 hPa | - | - | - | - |
| 1778082536 | 17.22° C | 50% | 1008.7 hPa | - | - | - | - |
| 1778082236 | 18.89° C | 49% | 1008.6 hPa | - | - | - | - |
| 1778081936 | 20.56° C | 48% | 1008.6 hPa | - | - | - | - |
| 1778081636 | 18.33° C | 49% | 1008.6 hPa | - | - | - | - |
| 1778081336 | 18.33° C | 48% | 1008.6 hPa | - | - | - | - |
| 1778081036 | 20.56° C | 48% | 1008.5 hPa | - | - | - | - |
| 1778080736 | 17.78° C | 50% | 1008.6 hPa | - | - | - | - |
* Rain since midnight (hover to see other rain measurements)
** Current wind speed in m/s (hover to see current wind gust speed)